Regional Weather Roundup
Issued by NWS

Home | Current Version | Previous Version | Graphics & Text | Print | Product List | Glossary On
Versions: 1 2 3 4 5 6 7 8 9 10 11 12 13 14 15 16 17 18 19 20 21 22 23 24 25 26 27 28 29 30 31 32 33 34 35 36 37 38 39 40 41 42 43 44 45 46 47 48 49 50
000
ASUS43 KLOT 280121
RWRIL

ILLINOIS REGIONAL WEATHER ROUNDUP
NATIONAL WEATHER SERVICE CHICAGO/ROMEOVILLE IL
800 PM CDT MON APR 27 2015

NOTE: "FAIR" INDICATES FEW OR NO CLOUDS BELOW 12,000 FEET WITH NO
SIGNIFICANT WEATHER AND/OR OBSTRUCTIONS TO VISIBILITY.

* THESE STATIONS ARE NOT UNDER NWS QUALITY CONTROL. THEY ALSO MAY NOT
  REPORT WEATHER SUCH AS PRECIPITATION OR FOG.

ILZ001-002-007-009-015-016-024-280200-
NORTHWEST ILLINOIS

CITY           SKY/WX    TMP DP  RH WIND       PRES   REMARKS
MOLINE         CLEAR     62  32  32 N3        30.08S
STERLING*      CLEAR     55  39  54 E6        30.09R
SAVANNA*       CLEAR     61  31  32 N3        30.08R
$$

ILZ003-004-008-010-011-017-018-280200-
NORTH CENTRAL ILLINOIS

CITY           SKY/WX    TMP DP  RH WIND       PRES   REMARKS
ROCKFORD       PTCLDY    56  36  47 E12       30.10S
FREEPORT*      CLEAR     55  34  45 E6        30.10R
ROCHELLE*      PTCLDY    53  38  57 SE12      30.10R
DE KALB*       PTCLDY    48  36  62 E9        30.11S
PERU*          PTCLDY    56  37  50 E13       30.10R
$$

ILZ005-006-012>014-019>023-280200-
NORTHEAST ILLINOIS

CITY           SKY/WX    TMP DP  RH WIND       PRES   REMARKS
CHICAGO-OHARE  PTCLDY    47  32  56 NE9       30.11S
CHICAGO-MIDWAY PTCLDY    49  33  54 N8        30.12S
AURORA         CLEAR     49  34  56 E9        30.11S
LANSING*       CLEAR     43  32  64 NE6       30.12R
JOLIET*        CLEAR     51  35  55 NE6       30.11S
WAUKEGAN       PTCLDY    42  33  70 NE7       30.10F
DUPAGE AIRPORT PTCLDY    48  34  58 E6        30.10S
KANKAKEE*      CLEAR     47  35  61 NE12G17   30.11R
WHEELING       PTCLDY    46  31  55 NE5       30.13F
MORRIS*        CLEAR     49  36  60 NE7       30.09S
ROMEOVILLE*    CLEAR     47  33  57 NE5       30.11S
NORTHERLY ISL    N/A     43  34  70 N8          N/A
$$

LMZ740>746-280200-
SOUTHERN LAKE MICHIGAN

STATION/POSITION SKY/WX   TEMP    WIND        PRES    VSBY  WAVE
                          AIR SEA DIR/SP/G                  HT/PER
                          (F)     (DEG/KT/KT) (MB)    (MI)  (FT/S)
HARRISON CRIB              41     340/  6/  7   N/A
BURNHAM HARBOR             42     360/  5/ 11   N/A
CALUMET HARBOR             43     350/  5/  8   N/A
BURNS HARBOR               44      40/ 11/ 13 1020.3S
MICHIGAN CITY              43      40/ 12/ 13   N/A
MICHIGAN CITY 6N           43 45   90/ 10/ 14   N/A           3/ 5
$$

ILZ025>027-034>036-040-047-049-050-058-095>099-280200-
WEST-CENTRAL ILLINOIS

CITY           SKY/WX    TMP DP  RH WIND       PRES   REMARKS
QUINCY         CLEAR     58  36  43 NE7       30.07R
GALESBURG*     CLEAR     51  38  59 N6        30.09R
MACOMB*        CLEAR     56  38  49 NE7       30.10S
JACKSONVILLE*  CLEAR     59  37  43 NE8       30.08R
PITTSFIELD*    PTCLDY    60  35  39 NE5       30.08R
$$

ILZ028>032-037-038-041>044-048-051>054-059>061-280200-
CENTRAL ILLINOIS

CITY           SKY/WX    TMP DP  RH WIND       PRES   REMARKS
PONTIAC        CLEAR     52  38  59 E15       30.11R
BLOOMINGTON    CLEAR     55  40  57 E18       30.09R
DECATUR        CLEAR     51  38  60 E8        30.07S
PEORIA         CLEAR     61  34  36 NE6       30.08R
LACON*         CLEAR     57  34  41 NE5       30.07R
LINCOLN*       CLEAR     55  38  51 NE5       30.06S
SPRINGFIELD    CLEAR     58  36  43 NE9       30.07R
TAYLORVILLE    CLEAR     55  36  47 NE8       30.07R
$$

ILZ033-039-045-046-055>057-062-063-280200-
EAST-CENTRAL ILLINOIS

CITY           SKY/WX    TMP DP  RH WIND       PRES   REMARKS
CHAMPAIGN      CLEAR     52  37  56 NE12      30.08R
DANVILLE*      CLEAR     47  37  68 N9        30.07R
RANTOUL*       CLEAR     53  38  56 NE10      30.09R
MATTOON        CLEAR     51  35  54 NE8       30.07S
PARIS*         CLEAR     51  37  59 NE6       30.08S
$$

ILZ079-100>102-280200-
SOUTHWEST ILLINOIS

CITY           SKY/WX    TMP DP  RH WIND       PRES   REMARKS
ALTON          PTCLDY    59  32  36 NE6       30.06R
BELLEVILLE     PTCLDY    59  40  49 NE7       30.04R
CAHOKIA*       PTCLDY    59  39  47 NE10      30.04S
SPARTA*        PTCLDY    56  40  54 NE7       30.04R
$$

ILZ064>066-069>071-074>076-080>082-084>086-088>090-092>094-280200-
SOUTH-CENTRAL ILLINOIS

CITY           SKY/WX    TMP DP  RH WIND       PRES   REMARKS
CARBONDALE     MOCLDY    58  38  47 N7        30.02R
CAIRO*         MOCLDY    60  42  50 NE10      30.00R
EFFINGHAM*     CLEAR     54  34  46 NE6       30.08R
MARION         MOCLDY    57  41  54 N3        30.03R
MT. VERNON     PTCLDY    55  36  47 N6        30.05R
CENTRALIA*     PTCLDY    56  37  49 NE6       30.05R
SALEM*         PTCLDY    58  39  49 NE5       30.05R
METROPOLIS*    MOCLDY    59  42  53 N7        29.99R
$$

ILZ067-068-072-073-078-083-087-091-280200-
SOUTHEAST ILLINOIS

CITY           SKY/WX    TMP DP  RH WIND       PRES   REMARKS
LAWRENCEVILLE  CLEAR     55  37  50 N15       30.06R
FLORA*         CLEAR     55  37  49 NE13G18   30.06R
FAIRFIELD*     PTCLDY    56  39  52 N12       30.04R
HARRISBURG*    PTCLDY    56  41  56 NE7       30.03R
ROBINSON*      CLEAR     53  37  55 NE12      30.07R
CARMI*         PTCLDY    56  35  45 N7        30.02R
$$

ABBREVIATIONS USED IN REMARKS
   TC - TEMPERATURE IN CELSIUS
  WCI - WIND CHILL INDEX
   HX - HEAT INDEX
  VSB - VISIBILITY
$$




USA.gov is the U.S. government's official web portal to all federal, state and local government web resources and services.